Regional Weather Roundup
Issued by NWS

Home | Current Version | Previous Version | Text Only | Print | Product List | Glossary On
Versions: 1 2 3 4 5 6 7 8 9 10 11 12 13 14 15 16 17 18 19 20 21 22 23 24 25 26 27 28 29 30 31 32 33 34 35 36 37 38 39 40 41 42 43 44 45 46 47 48 49 50
000
ASUS43 KLMK 091110
RWRKY
KENTUCKY REGIONAL WEATHER ROUNDUP
NATIONAL WEATHER SERVICE LOUISVILLE KY
600 AM EST FRI DEC 09 2016

NOTE "FAIR" INDICATES FEW OR NO CLOUDS BELOW 12,000 FEET
WITH NO SIGNIFICANT WEATHER AND/OR OBSTRUCTIONS TO VISIBILITY.

KYZ001>023-026-027-061>063-070>075-091200-
WESTERN AND SOUTH CENTRAL KENTUCKY

CITY           SKY/WX    TMP DP  RH WIND       PRES   REMARKS
PADUCAH        CLEAR     19  12  74 W5        30.60R WCI  12
HENDERSON      PTCLDY    21  10  63 NW7       30.60R WCI  13
OWENSBORO      CLOUDY    23  15  71 W9        30.59R WCI  13
HOPKINSVILLE   CLOUDY    23  16  74 NW5       30.57R WCI  17
BOWLING GREEN  CLOUDY    26  13  57 VRB6      30.57R WCI  19
GLASGOW        CLOUDY    24  16  70 NW6       30.54S WCI  17
$$

KYZ024-025-028>034-038-045-046-053-091200-
NORTH CENTRAL KENTUCKY

CITY           SKY/WX    TMP DP  RH WIND       PRES   REMARKS
LOUISVILLE/SDF FLURRIES  24  11  57 NW9       30.55R WCI  14
LOUISVILLE/LOU FLURRIES  23  12  62 NW7       30.56R WCI  15
FORT KNOX      CLOUDY    22  13  66 NW8       30.52S WCI  13
$$

KYZ035>037-039>044-047>052-055>060-089>105-091200-
NORTHEAST KENTUCKY

CITY           SKY/WX    TMP DP  RH WIND       PRES   REMARKS
LEXINGTON      FLURRIES  21  12  68 W13       30.51R WCI   9
COVINGTON      FLURRIES  22  14  71 W13       30.48R WCI  10
FRANKFORT      FLURRIES  22  12  65 W6        30.52R WCI  14
$$

KYZ054-064>069-076>088-106>120-091200-
SOUTHEAST KENTUCKY

CITY           SKY/WX    TMP DP  RH WIND       PRES   REMARKS
JACKSON        LGT SNOW  21  15  78 NW3       30.45R
LONDON         CLOUDY    22  12  65 NW9       30.49R WCI  12
SOMERSET       CLOUDY    23  12  63 N6        30.53R WCI  16
MIDDLESBORO    CLOUDY    24  15  67 CALM      30.48R
MONTICELLO     FLURRIES  24  16  71 N10       30.53R WCI  14
$$





USA.gov is the U.S. government's official web portal to all federal, state and local government web resources and services.